Regional Weather Roundup
Issued by NWS Pendleton, OR

Home | Current Version | Previous Version | Text Only | Print | Product List | Glossary On
Versions: 1 2 3 4 5 6 7 8 9 10 11 12 13 14 15 16 17 18 19 20 21 22 23 24 25 26 27 28 29 30 31 32 33 34 35 36 37 38 39 40 41 42 43 44 45 46 47 48 49 50
000
ASUS46 KPDT 141104
RWRPDT
PENDLETON REGIONAL WEATHER ROUNDUP
NATIONAL WEATHER SERVICE PENDLETON OREGON
400 AM PDT MON JUL 14 2014

NOTE: FAIR INDICATES FEW OR NO CLOUDS BELOW 12,000 FEET WITH NO
SIGNIFICANT WEATHER AND/OR OBSTRUCTIONS TO VISIBILITY.

# INDICATES UNOFFICIAL STATION AND DATA

WAZ520-141210-
EAST SLOPES OF WASHINGTON CASCADES

CITY            SKY/WX      TMP DP  RH  WIND    PRES   REMARKS
#BULLFROG       N/A         71  59  66  W9      N/A
#BUMPING DAM    N/A         59  N/A N/A CALM    N/A
#CLE ELUM HS    N/A         71  57  61  W7      30.01S
#CLE ELUM LAKE  N/A         67  55  65  N1      29.91F
#CLIFFDEL 2NW   N/A         65  52  63  N1      N/A
#EASTON DOT     N/A         67  55  65  N1      N/A
#ELK HTS DOT    N/A         73  73  100 SW1     N/A
#GLENWOOD       N/A         52  50  93  CALM    29.99S
#MANASTASH CYN  N/A         72  49  44  CALM    30.06F
#NELSON         N/A         70  59  68  CALM    29.98S
#NELSON 3SW     N/A         71  51  49  CALM    30.14S
#NILE           N/A         59  53  80  CALM    29.27F
#PEOH POINT     N/A         63  53  70  SW10    N/A
#RONALD 2NW     N/A         67  54  63  N1      29.99F
#SOUTH BLEWITT  N/A         59  49  69  CALM    N/A
#TROUT LAKE 1NE N/A         53  52  96  CALM    29.98F
$$

WAZ521-141210-
SIMCOE HIGHLANDS

CITY            SKY/WX      TMP DP  RH  WIND    PRES   REMARKS
#BICKLETON HS   N/A         72  34  25  N5      30.12S
#SATUS PASS DOT N/A         68  44  42  CALM    N/A
#CENTERVILLE 4W N/A         65  56  73  N2      29.81S
#CENTERVILLE 1SWN/A         58  54  87  CALM    29.95R
#GOLDENDALE 1NE N/A         60  58  93  CALM    N/A
#GOLDENDALE 1S  N/A         61  58  90  CALM    30.03S
#GOODNOE HILLS  N/A         68  59  73  NW8     29.96R
#LYLE 6NE       N/A         63  60  90  SE5     29.96F
$$

WAZ026-141210-
KITTITAS VALLEY

CITY            SKY/WX      TMP DP  RH  WIND    PRES   REMARKS
ELLENSBURG AP   PTCLDY      75  57  54  NW16    30.04R
#ELLENSBURG CWU N/A         74  58  57  N12     29.88R
#ELLENSBURG 3NE N/A         73  59  62  N12     30.02S
#KITTITAS 3S    N/A         63  57  81  CALM    29.92R
#ROCKY CYN DOT  N/A         73  61  66  W9      N/A
#RYEGRASS DOT   N/A         70  58  66  W16     N/A
#THORP 6N       N/A         70  57  63  N15G26  29.93R
$$

WAZ027-141210-
YAKIMA VALLEY

CITY            SKY/WX      TMP DP  RH  WIND    PRES   REMARKS
YAKIMA AIRPORT  PTCLDY      80  53  39  N9      30.00R
YAKIMA-VAGABOND CLEAR       71  46  41  E9      30.02R
#COWICHE 1N     N/A         74  53  48  NW9     30.17R
#GRANDVIEW      N/A         66  55  68  CALM    29.94R
#MOXEE 2E       N/A         68  44  42  NE2     29.92S
#NACHES 2SW     N/A         75  56  52  W13G26  30.03R
#PARKER DOT     N/A         80  49  34  SE7     N/A
#SELAH 8E       N/A         65  42  43  E6      N/A
#TERRACE HTS    N/A         75  50  41  CALM    29.88R
#TOPPENISH      N/A         70  54  57  CALM    29.84S
#I82 S UMTANUM RN/A         70  47  44  NE6     N/A
#UNION GAP DOT  N/A         71  50  47  NE2     N/A
#WEST VALLEY    N/A         77  51  40  N7      29.93S
#W YAKIMA       N/A         77  55  47  NE5     29.91R
#WHITE SWAN 5E  N/A         64  54  70  CALM    29.92R
#WILEY CITY 3W  N/A         64  48  56  CALM    29.99R
#ZILLAH DOT     N/A         77  50  39  W5      N/A
$$

WAZ028-141210-
LOWER COLUMBIA BASIN...WASHINGTON

CITY            SKY/WX      TMP DP  RH  WIND    PRES   REMARKS
PASCO           PTCLDY      74  64  71  S6      29.95R
PROSSER AWOS    N/A         66  57  73  N2      29.99S
RICHLAND AWOS   PTCLDY      77  50  39  SW7     29.93F
#BASIN CITY 5SW N/A         79  56  45  CALM    29.94S
#BENTON CITY    N/A         71  55  57  NW5     29.82S
#CONNELL 5N     N/A         73  49  43  CALM    29.89R
#CONNELL 5NW    N/A         73  53  49  CALM    29.86R
#ELTOPIA 6NW    N/A         77  52  42  W7      28.92S
#KENNEWICK 3S   N/A         71  59  66  S2      29.91R
#PATERSON       N/A         71  61  71  SE1     29.91S
#PROSSER DOT    N/A         67  59  75  E2      N/A
#PROSSER        N/A         73  50  44  CALM    29.92R
#SAGEMOOR 2W    N/A         76  55  48  CALM    29.75S
#TOUCHET 2S     N/A         76  60  58  N1      29.88F
#WEST PASCO     N/A         80  53  39  SW1     29.93S
$$

WAZ029-141210-
FOOTHILLS OF THE BLUES...WASHINGTON

CITY            SKY/WX      TMP DP  RH  WIND    PRES   REMARKS
WALLA WALLA AP  LGT RAIN    79  58  49  E15     29.97F
#COLLEGE PLACE  N/A         78  59  52  E7      29.95F
#DAYTON SCHOOL  N/A         78  47  34  SE2     30.01F
#LOWDEN 2SE     N/A         76  61  60  S5      29.91R
#PLEASANT VIEW 1N/A         80  50  35  SE2     29.89F
#PRESCOTT       N/A         80  54  41  CALM    29.84F
#SUDBURY        N/A         75  N/A N/A SE3     N/A
#WHITMAN COLLEGEN/A         79  57  47  E2      29.92F
#WAITSBURG 8N   N/A         81  36  20  S5      29.82S
#WALLA WALLA 5E N/A         78  56  47  CALM    N/A
#WHITMAN MISSIONN/A         73  62  68  CALM    29.91R
$$

WAZ030-141210-
BLUE MOUNTAINS...WASHINGTON

CITY            SKY/WX      TMP DP  RH  WIND    PRES   REMARKS
$$

ORZ009-041-WAZ024-141210-
COLUMBIA RIVER GORGE

CITY            SKY/WX      TMP DP  RH  WIND    PRES   REMARKS
HOOD RIVER AP   CLEAR       64  59  84  CALM    30.06S
THE DALLES AP   PTCLDY      70  61  73  N16     30.01R
#ARLINGTON AIRPON/A         69  59  70  W16     N/A
#ARLINGTON HS   N/A         72  59  64  W2      29.86R
#MARYHILL       N/A         70  58  66  CALM    N/A
#MOSIER 1S      N/A         69  54  59  NW3     30.09S
#MURDOCK        N/A         72  63  73  W10G29  30.01S
#RUFUS DOT      N/A         74  59  59  SE2     N/A

$$

ORZ510-141210-
NORTH CENTRAL OREGON

CITY            SKY/WX      TMP DP  RH  WIND    PRES   REMARKS
#CHENOWITH 1W   N/A         64  59  84  W31     N/A
#COW CYN RST AREN/A         70  55  59  N3      N/A
#GRASS VALLEY 1SN/A         60  51  72  CALM    29.98R
#KENT DOT       N/A         63  50  62  W8      N/A
#MAUPIN SCHOOL  N/A         65  57  75  CALM    30.05S
#MORO SCHOOL    N/A         64  62  93  W7      30.05R
#SHANIKO 5WSW   N/A         68  47  47  N8      N/A
#SHANIKO 4NW    N/A         67  47  49  VRB8    30.14S
#TYGH VALLEY 2NEN/A         62  55  78  CALM    29.97R
#WAPANITIA AIRPON/A         63  56  78  NW1     29.97R
#WASCO DOT      N/A         64  61  90  W3      N/A
#WASCO 5NE      N/A         64  59  84  SW9     29.94R
$$

ORZ511-141210-
CENTRAL OREGON

CITY            SKY/WX      TMP DP  RH  WIND    PRES   REMARKS
BEND AIRPORT    CLEAR       59  48  67  W3      30.15R
MADRAS AIRPORT  CLEAR       55  52  90  CALM    30.11R
REDMOND AIRPORT CLEAR       55  46  72  S5      30.11S
#BEND 6E        N/A         61  44  53  CALM    29.89R
#BEND 1SW       N/A         53  45  74  CALM    N/A
#BEND-AWBREY    N/A         67  46  47  S2      29.92R
#BEND-KIM LN    N/A         60  51  72  CALM    30.11S
#CULVER         N/A         61  52  72  CALM    30.07R
#LAKE BILLY CHINN/A         63  37  38  CALM    30.14R
#POWELL BUTTE 3EN/A         62  50  65  E1      N/A
#POWELL BUTTE   N/A         63  47  56  E1      29.77R
#PRINEVILLE 3N  N/A         56  50  80  CALM    29.91R


ORZ509-141210-
EAST SLOPES OF OREGON CASCADES

CITY            SKY/WX      TMP DP  RH  WIND    PRES   REMARKS
#BLUE BOX PASS  N/A         54   2  12  NW2     N/A
#BLACK BUTTE RNCN/A         53  49  86  CALM    29.98R
#CAMP SHERMAN   N/A         48  45  89  CALM    30.03R
#LA PINE DOT    N/A         51  42  71  CALM    N/A
#LA PINE 4NW    N/A         47  43  86  CALM    29.99R
#LAVA BUTTE DOT N/A         55  44  66  NE1     N/A
#MT BACHELOR-LOWN/A         59  N/A N/A MISG    N/A
#MT BACHELOR-MIDN/A         59  32  36  SE2     N/A
#SISTERS AIRPOR N/A         52  52  100 N1      30.11S
#SISTERS ODOT   N/A         51  N/A N/A CALM    N/A
#SUNRIVER       N/A         52  48  86  CALM    29.84R
#SUNRIVER AP    N/A         50  46  86  CALM    29.92R
#SUTTLE LK DOT  N/A         55  54  96  W14     N/A
#TUMALO 3W      N/A         68  45  44  NW3     29.81S
#WANOGA BUTTE D N/A         62  38  41  NE2     N/A

$$

ORZ044-141210-
LOWER COLUMBIA BASIN...OREGON

CITY            SKY/WX      TMP DP  RH  WIND    PRES   REMARKS
HERMISTON       PTCLDY      71  59  66  VRB7    29.98R
#BOARDMAN 3W    N/A         70  60  71  W8      29.65S
#BOARDMAN 8SW   N/A         69  60  73  SW8     29.92S
#IONE SCHOOL    N/A         70  53  55  CALM    29.99S
#IRRIGON 4NW    N/A         69  63  81  S2      N/A
#UMATILLA SCHOOLN/A         70  67  90  CALM    30.02R
#UMATILLA       N/A         72  59  64  CALM    29.94R
$$

ORZ507-141210-
NORTHERN FOOTHILLS OF THE BLUES

CITY            SKY/WX      TMP DP  RH  WIND    PRES   REMARKS
PENDLETON AIRPT LGT RAIN    71  60  68  CALM    30.03R
#ADAMS 3WNW     N/A         70  59  68  E5      29.88F
#ATHENA         N/A         70  61  73  CALM    29.93R
#HELIX SCHOOL   N/A         72  58  61  SE7     29.90F
#HELIX 3N       N/A         76  55  48  S10     29.99F
#HELIX 6SW      N/A         72  59  64  W7      30.01
#M-F FERNDALE   N/A         73  59  62  CALM    29.98R
#M-F GROVE ELEM N/A         77  55  47  S1      29.98S
#M-FREEWATER 5SEN/A         74  59  59  NE3     29.99S
#PDT AQUATIC CTRN/A         73  57  57  W2      30.01S
#PENDLETON DNTN N/A         72  57  59  NW1     29.98R
#PDT SUNRIDGE   N/A         71  61  71  SE3     30.00S
#PENDLETON 7NW  N/A         72  60  66  CALM    31.53S
#PILOT ROCK     N/A         70  56  61  SE2     30.05R
#TUTUILLA       N/A         72  62  71  CALM    29.87F
#UMAPINE 2E     N/A         73  61  66  E2      29.93S
#WESTON SCHOOL  N/A         73  57  57  CALM    30.01R

$$

ORZ508-141210-
SOUTHERN FOOTHILLS OF THE BLUES

CITY            SKY/WX      TMP DP  RH  WIND    PRES   REMARKS
#AJAX           N/A         N/A N/A N/A W2      30.08S
#CONDON SCHOOL  N/A         66  51  58  CALM    30.06R
#CONDON 5W      N/A         68  49  51  NW7     30.09R
#FOSSIL SCHOOL  N/A         60  52  75  CALM    30.06S
#HEPPNER EOC    N/A         69  55  61  W2      29.85F
#HEPPNER 4NE    N/A         68  53  59  CALM    29.89R
#LEXINGTON 2SE  N/A         67  57  70  CALM    29.99S
#MIKKALO        N/A         67  51  56  CALM    30.05R
#OLEX 4N        N/A         67  58  73  W9      29.99R
#RUGGS 5NE      N/A         69  53  57  VRB6    30.27S
#RUGGS 2SW      N/A         70  52  53  CALM    29.94F

$$

ORZ502-503-141210-
BLUE MOUNTAINS

CITY            SKY/WX      TMP DP  RH  WIND    PRES   REMARKS
MEACHAM         MOCLDY      62  57  84  CALM    30.15F
#BATTLE MTN DOT N/A         61  59  93  N3      N/A
#HARDMAN 10S    N/A         64  52  65  CALM    30.19F
#HEPPNER 15SE   N/A         57  54  90  CALM    30.07F
#LADD CYN SMT   N/A         63  52  67  W3      N/A
#LADD CREEK ODOTN/A         60  59  96  SW5     N/A
#N POWDER DOT   N/A         67  57  70  NW5     N/A
#TOLLGATE       N/A         61  53  75  N1      30.14S
#TROY SCHOOL    N/A         72  59  64  SW6     29.79R
#UKIAH          N/A         62  55  78  CALM    29.96S
#WESTON 4E      N/A         70  54  57  N1      29.85R
$$

ORZ505-141210-
JOHN DAY BASIN

CITY            SKY/WX      TMP DP  RH  WIND    PRES   REMARKS
JOHN DAY        PTCLDY      70  48  46  W7      30.12R
#JOHN DAY KJDY  N/A         67  65  93  CALM    29.98R
#MONUMENT HS    N/A         64  60  87  CALM    29.80R
#MT. VERNON 5SE N/A         68  46  45  CALM    30.08S
#WINLOCK        N/A         64  49  58  CALM    30.17S
$$

ORZ506-141210-
OCHOCO AND JOHN DAY HIGHLANDS

CITY            SKY/WX      TMP DP  RH  WIND    PRES   REMARKS
#BUCK CREEK DOT N/A         67  49  52  W6      N/A
#KEYES SMT DOT  N/A         63  44  50  S2      N/A
#PAULINA SCHOOL N/A         60  48  64  SW1     30.09F
#PINE MTN OBS   N/A         58  45  62  N3      N/A
#PRAIRIE CITY   N/A         56  50  80  CALM    30.08R
#SENECA 9NW     N/A         67  44  43  CALM    29.83S
$$

ORZ049-141210-
GRANDE RONDE VALLEY

CITY            SKY/WX      TMP DP  RH  WIND    PRES   REMARKS
LA GRANDE       MOCLDY      72  46  39  N13     30.06R
#COVE           N/A         72  56  57  W1      29.97R
#COVE SCHOOL    N/A         73  54  51  CALM    30.04R
#COVE 6NW       N/A         69  54  59  N9      29.92F
#ELGIN 3N       N/A         71  51  49  NE2     29.81S
#ELGIN 1E       N/A         73  52  48  CALM    N/A
#ISLAND CITY 4N N/A         70  53  55  N8      29.86R
#LADD CYN DOT   N/A         64  57  78  SE9     N/A
#UNION 1S       N/A         74  51  44  N1      29.80R
$$

ORZ050-141210-
WALLOWA COUNTY

CITY            SKY/WX      TMP DP  RH  WIND    PRES   REMARKS
#ENTERPRISE HS  N/A         62  56  81  CALM    30.15R
#IMNAHA SCHOOL  N/A         79  42  27  CALM    29.98F
#IMNAHA 10S     N/A         69  55  61  SW9     30.07F
#JOSEPH 3N      N/A         62  53  72  CALM    30.19R
#LOSTINE        N/A         64  56  75  E2      29.73R
#MT HOWARD 8000 N/A         57  N/A N/A W6      30.48R
#PROMISE 1S     N/A         69  53  57  SE2     30.01R
#SHEEP RDG 7000 N/A         61  40  46  CALM    29.87F
#WALLOWA SCHOOL N/A         69  53  57  CALM    30.80R



$$



USA.gov is the U.S. government's official web portal to all federal, state and local government web resources and services.